Regional Weather Roundup
Issued by NWS Midland/Odessa, TX

Home | Current Version | Previous Version | Text Only | Print | Product List | Glossary On
Versions: 1 2 3 4 5 6 7 8 9 10 11 12 13 14 15 16 17 18 19 20 21 22 23 24 25 26 27 28 29 30 31 32 33 34 35 36 37 38 39 40 41 42 43 44 45 46 47 48 49 50
000
ASUS44 KMAF 230410
RWRMAF
MIDLAND AREA WEATHER ROUNDUP
NATIONAL WEATHER SERVICE MIDLAND TX
1000 PM CST MON DEC 22 2014

...IN SOUTHWEST TEXAS AND SOUTHEAST NEW MEXICO...

CITY           SKY/WX    TMP DP  RH WIND       PRES   REMARKS
ALPINE         PTCLDY    52  29  41 SW10      29.81S
ANDREWS        LGT RAIN  48  32  54 N22       29.80R
ARTESIA        CLOUDY    50  41  71 VRB3      29.68F
BIG SPRING     CLOUDY    54  34  47 NE10      29.74R
CARLSBAD       MOCLDY    52  40  63 NE10      29.68S
DRYDEN           N/A     56  32  40 CALM      29.63S
FORT STOCKTON  MOCLDY    57  31  37 SW13      29.65F
GUAD PASS      NOT AVBL
HOBBS          CLOUDY    39  39 100 E14G23    29.73F WCI  31
MARFA          MOCLDY    43  27  52 E5        29.78S
MIDLAND AIRPK  CLOUDY    53  35  51 NE13G18   29.70R
MIDLAND INTL   CLOUDY    53  35  50 NE16G25   29.68R
ODESSA         CLOUDY    51  33  50 E15       29.69R
PECOS          MOCLDY    58  32  37 SW15      29.62S
PRESIDIO       FAIR      55  32  40 CALM      29.70S
SEMINOLE       HVY RAIN  41  38  89 N7        29.81R WCI  37
SNYDER         CLOUDY    50  30  45 N18       29.74R
WINK             N/A     54  40  59 N23       29.67R
$$
...OTHER STATIONS IN TEXAS...

CITY           SKY/WX    TMP DP  RH WIND       PRES   REMARKS
ABILENE        CLOUDY    52  35  52 N7        29.74R
AMARILLO       MOCLDY    33  30  88 W8        29.78R WCI  26
AUSTIN         CLOUDY    57  52  83 N7        29.67R
BROWNSVILLE    MOCLDY    67  65  93 S9        29.65S FOG
CORPUS CHRISTI PTCLDY    63  61  93 S7        29.63R
DALLAS FTW     CLOUDY    51  42  71 NW5       29.67F
DEL RIO        CLOUDY    53  51  93 NE3       29.62F
EL PASO        PTCLDY    59  35  40 W26G35    29.72F
HOUSTON INT    PTCLDY    60  59  96 CALM      29.68R
LUBBOCK        LGT RAIN  40  35  83 NE13      29.76R WCI  32
SAN ANGELO     CLOUDY    52  37  56 NE7       29.68R
SAN ANTONIO    CLOUDY    58  53  84 CALM      29.66S
WACO           CLOUDY    54  44  69 N5        29.67F
WICHITA FALLS  NOT AVBL
$$
...OTHER LOCATIONS IN NEW MEXICO...

CITY           SKY/WX    TMP DP  RH WIND       PRES   REMARKS
ALAMAGORDO     MOCLDY    55  32  41 N17       29.73R
ALBUQUERQUE    MOCLDY    45  29  53 NW21      29.78R WCI  37
CANNON AFB     LGT SNOW  32  32 100 CALM      29.78R FOG
CLOVIS         CLOUDY    34  30  86 NE6       29.78R WCI  29
HOLLOMAN AFB   MOCLDY    52  35  51 N13       29.72R
ROSWELL        MOCLDY    47  39  74 NE9       29.71R
RUIDOSO        MOCLDY    37  36  93 NW12G26   29.80R WCI  30
SANTA FE       LGT SNOW  31  28  89 NE15      29.78R FOG     WCI  20
TRUTH OR CONSE CLEAR     56  31  38 NW20G25   29.77S
TUCUMCARI      CLOUDY    33  32  96 N8        29.78R WCI  26
$$


USA.gov is the U.S. government's official web portal to all federal, state and local government web resources and services.